TimeEST,TemperatureF,Dew PointF,Humidity,Sea Level PressureIn,VisibilityMPH,Wind Direction,Wind SpeedMPH,Gust SpeedMPH,PrecipitationIn,Events,Conditions,WindDirDegrees,DateUTC
12:03 AM,64.4,57.2,77,30.16,10.0,SSW,8.1,-,N/A,,Overcast,210,2012-11-13 05:03:00
12:24 AM,64.4,57.2,77,30.16,10.0,SSW,11.5,17.3,N/A,,Overcast,210,2012-11-13 05:24:00
12:45 AM,53.6,50.0,88,30.19,4.0,NW,11.5,26.5,N/A,,Overcast,320,2012-11-13 05:45:00
1:06 AM,50.0,48.2,94,30.22,5.0,WNW,10.4,17.3,N/A,,Scattered Clouds,300,2012-11-13 06:06:00
1:27 AM,50.0,46.4,87,30.24,4.0,WNW,11.5,16.1,N/A,,Scattered Clouds,300,2012-11-13 06:27:00
2:12 AM,48.2,46.4,93,30.24,5.0,NW,5.8,-,N/A,,Scattered Clouds,320,2012-11-13 07:12:00
2:33 AM,48.2,46.4,93,30.25,5.0,North,5.8,-,N/A,,Clear,350,2012-11-13 07:33:00
2:54 AM,48.2,44.6,87,30.25,7.0,NNW,8.1,-,N/A,,Clear,340,2012-11-13 07:54:00
3:15 AM,46.4,44.6,93,30.26,10.0,NW,9.2,-,N/A,,Mostly Cloudy,320,2012-11-13 08:15:00
3:57 AM,46.4,42.8,87,30.27,10.0,NW,5.8,16.1,N/A,,Overcast,310,2012-11-13 08:57:00
4:18 AM,44.6,42.8,93,30.27,10.0,NNW,6.9,-,N/A,,Overcast,340,2012-11-13 09:18:00
4:39 AM,44.6,41.0,87,30.29,10.0,NNW,6.9,18.4,N/A,,Overcast,340,2012-11-13 09:39:00
5:00 AM,44.6,41.0,87,30.30,5.0,NNW,8.1,-,N/A,,Mostly Cloudy,330,2012-11-13 10:00:00
5:21 AM,44.6,41.0,87,30.32,7.0,NW,8.1,-,N/A,,Scattered Clouds,320,2012-11-13 10:21:00
5:42 AM,42.8,41.0,93,30.34,4.0,NNW,8.1,-,N/A,,Mostly Cloudy,330,2012-11-13 10:42:00
6:06 AM,42.8,39.2,87,30.33,10.0,North,8.1,-,N/A,,Mostly Cloudy,10,2012-11-13 11:06:00
6:48 AM,41.0,39.2,93,30.36,7.0,NNW,5.8,-,N/A,,Scattered Clouds,340,2012-11-13 11:48:00
7:09 AM,41.0,39.2,93,30.37,5.0,NNW,8.1,-,N/A,,Scattered Clouds,340,2012-11-13 12:09:00
7:30 AM,41.0,37.4,87,30.37,2.5,NNW,4.6,-,N/A,,Unknown,340,2012-11-13 12:30:00
7:51 AM,41.0,39.2,93,30.39,3.0,NNW,5.8,-,N/A,,Clear,340,2012-11-13 12:51:00
8:12 AM,41.0,37.4,87,30.39,5.0,North,8.1,-,N/A,,Clear,10,2012-11-13 13:12:00
8:33 AM,41.0,37.4,87,30.39,10.0,North,6.9,-,N/A,,Mostly Cloudy,10,2012-11-13 13:33:00
8:54 AM,41.0,37.4,87,30.42,7.0,NNW,5.8,-,N/A,,Scattered Clouds,340,2012-11-13 13:54:00
9:15 AM,41.0,37.4,87,30.42,7.0,NNW,3.5,-,N/A,,Clear,330,2012-11-13 14:15:00
9:36 AM,42.8,37.4,81,30.43,10.0,NW,4.6,-,N/A,,Scattered Clouds,310,2012-11-13 14:36:00
9:57 AM,42.8,37.4,81,30.44,10.0,WNW,4.6,-,N/A,,Scattered Clouds,300,2012-11-13 14:57:00
10:21 AM,41.0,35.6,81,30.42,3.0,NW,4.6,-,N/A,,Scattered Clouds,310,2012-11-13 15:21:00
10:42 AM,41.0,37.4,87,30.42,10.0,WNW,5.8,-,N/A,,Scattered Clouds,300,2012-11-13 15:42:00
11:03 AM,42.8,37.4,81,30.42,10.0,WNW,6.9,-,N/A,,Mostly Cloudy,290,2012-11-13 16:03:00
11:24 AM,42.8,35.6,76,30.41,10.0,NNW,5.8,-,N/A,,Mostly Cloudy,340,2012-11-13 16:24:00
11:45 AM,42.8,32.0,66,30.40,10.0,NNW,8.1,-,N/A,,Mostly Cloudy,340,2012-11-13 16:45:00
12:06 PM,44.6,32.0,61,30.40,10.0,NNW,11.5,-,N/A,,Clear,340,2012-11-13 17:06:00
12:27 PM,44.6,32.0,61,30.39,10.0,NW,8.1,-,N/A,,Clear,320,2012-11-13 17:27:00
12:48 PM,44.6,32.0,61,30.38,10.0,NNW,3.5,-,N/A,,Scattered Clouds,340,2012-11-13 17:48:00
1:09 PM,46.4,32.0,57,30.38,10.0,NNW,6.9,-,N/A,,Clear,340,2012-11-13 18:09:00
1:51 PM,46.4,30.2,53,30.37,10.0,NNW,9.2,-,N/A,,Clear,340,2012-11-13 18:51:00
2:12 PM,46.4,32.0,57,30.37,10.0,NW,6.9,-,N/A,,Clear,320,2012-11-13 19:12:00
2:33 PM,48.2,30.2,50,30.37,10.0,North,4.6,-,N/A,,Clear,350,2012-11-13 19:33:00
2:57 PM,46.4,30.2,53,30.37,10.0,NW,8.1,-,N/A,,Clear,310,2012-11-13 19:57:00
3:18 PM,46.4,30.2,53,30.37,10.0,North,10.4,-,N/A,,Clear,350,2012-11-13 20:18:00
3:39 PM,46.4,30.2,53,30.38,10.0,NNW,5.8,-,N/A,,Clear,330,2012-11-13 20:39:00
4:00 PM,44.6,28.4,53,30.39,10.0,NW,6.9,-,N/A,,Clear,320,2012-11-13 21:00:00
4:21 PM,44.6,28.4,53,30.39,10.0,NW,6.9,-,N/A,,Clear,320,2012-11-13 21:21:00
4:42 PM,44.6,28.4,53,30.40,10.0,NNW,8.1,-,N/A,,Clear,330,2012-11-13 21:42:00
5:03 PM,42.8,30.2,61,30.40,10.0,NNW,5.8,-,N/A,,Clear,330,2012-11-13 22:03:00
5:18 PM,-9999,-9999,N/A,-9999,-9999.0,North,-9999.0,-,N/A,,Unknown,0,2012-11-13 22:18:00
5:45 PM,41.0,30.2,65,30.42,10.0,NNW,3.5,-,N/A,,Clear,330,2012-11-13 22:45:00
6:06 PM,39.2,30.2,70,30.43,10.0,Calm,Calm,-,N/A,,Clear,0,2012-11-13 23:06:00
6:27 PM,37.4,30.2,75,30.45,10.0,Calm,Calm,-,N/A,,Clear,0,2012-11-13 23:27:00
6:48 PM,35.6,30.2,81,30.45,10.0,Calm,Calm,-,N/A,,Clear,0,2012-11-13 23:48:00
7:09 PM,33.8,30.2,87,30.46,10.0,Calm,Calm,-,N/A,,Clear,0,2012-11-14 00:09:00
7:33 PM,33.8,30.2,87,30.47,10.0,NW,3.5,-,N/A,,Clear,310,2012-11-14 00:33:00
7:54 PM,33.8,32.0,93,30.47,10.0,NW,3.5,-,N/A,,Clear,310,2012-11-14 00:54:00
8:15 PM,33.8,30.2,87,30.47,10.0,NW,3.5,-,N/A,,Clear,310,2012-11-14 01:15:00
8:57 PM,32.0,30.2,93,30.48,10.0,NW,3.5,-,N/A,,Clear,310,2012-11-14 01:57:00
9:39 PM,33.8,30.2,87,30.49,10.0,NW,3.5,-,N/A,,Clear,310,2012-11-14 02:39:00
10:00 PM,33.8,28.4,81,30.49,10.0,NW,4.6,-,N/A,,Clear,310,2012-11-14 03:00:00
10:21 PM,33.8,28.4,81,30.50,10.0,NW,3.5,-,N/A,,Clear,310,2012-11-14 03:21:00
10:42 PM,32.0,28.4,87,30.50,10.0,NW,5.8,-,N/A,,Clear,310,2012-11-14 03:42:00
11:03 PM,32.0,28.4,87,30.50,10.0,NW,3.5,-,N/A,,Clear,310,2012-11-14 04:03:00
11:27 PM,32.0,28.4,87,30.50,10.0,WNW,4.6,-,N/A,,Clear,300,2012-11-14 04:27:00
11:48 PM,32.0,28.4,87,30.50,10.0,Calm,Calm,-,N/A,,Clear,0,2012-11-14 04:48:00